sat.trackr.live / text

‹ back to catalog

STARLINK-6349

NORAD 57241 · 2023-094Z

PAYLOAD ACTIVE UNKNOWN

§ Identity

Operator
Country
US
Launch date
2023-07-07
Launch site
AFWTR
Launch vehicle
Mass (kg)
RCS (m²)

Purposes: comms

External: N2YO · Heavens-Above · Gunter

§ Orbital elements

Epoch: 2026-09-20T13:46:45.998400Z

Period
94.27 min
Inclination
43.0045°
Eccentricity
0.0001174
Mean motion
15.27573581 rev/d
Perigee alt
482.3 km
Apogee alt
483.9 km
Semi-major
6,861.2 km
B*
-1.9080e-5
RAAN
359.4125°
Arg perigee
280.2020°
Mean anomaly
79.8699°
Rev number
17,704

§ Raw data

STARLINK-63491 57241U 23094Z   26263.57414350 -.00000787  00000+0 -19080-4 0  99902 57241  43.0045 359.4125 0001174 280.2020  79.8699 15.27573581177044

JSON: /api/v1/satellites/57241 · /tle

For live sub-satellite position, see the globe view (requires WebGL).

§ Visibility from observer

Set your observer location to see the next 7 days of passes ≥ 10°. The values pass through the URL so the page stays shareable.

No JS? Fill the form by hand. The geolocation button needs JavaScript.